Flag for U.S.A. Weather past 2 weeks in Richmond, Virginia, U.S.A.

45 °F


Feels Like: 45 °F
Forecast: 41 / 67 °F
Wind: No wind

Location: Richmond International Airport

Current Time: Nov 27, 2015 at 1:40:36 AM

Latest Report: Nov 27, 2015 at 12:54 AM

Visibility: 10 mi

Pressure: 30.63 "Hg

Humidity: 97%

Dew point: 44 °F

Location of RichmondLocation

Historic Weather in Richmond — Graph


Richmond temperature yesterday

Maximum temperature yesterday: 67 °F (at 2:54 PM)
Minimum temperature yesterday: 36 °F (at 4:54 AM)
Average temperature yesterday: 51 °F

Past Weeks' High & Low Weather Summary

High71 °F (Nov 12, 2:54 PM)100% (Nov 19, 6:54 AM)30.79 "Hg (Nov 19, 6:54 AM)
Low26 °F (Nov 24, 6:54 AM)18% (Nov 13, 3:54 PM)29.66 "Hg (Nov 12, 3:54 PM)
Average50 °F65%30.24 "Hg
* Reported Nov 11 11:54 PM — Nov 26 11:54 PM, Richmond, Weather by CustomWeather, © 2015

Note: Actual official high and low records may vary slightly from our data, if they occured in-between our weather recording intervals... More about our weather records


Richmond weather history for previous 24 hours

Time TempWeatherWind HumidityBarometerVisibility
11:54 PM
Thu, Nov 26
47 °FPassing clouds.No wind97%30.64 "Hg10 mi
10:54 PM49 °FPassing clouds.No wind90%30.65 "Hg10 mi
9:54 PM51 °FPassing clouds.5 mph89%30.64 "Hg10 mi
8:54 PM53 °FPassing clouds.6 mph83%30.65 "Hg10 mi
7:54 PM55 °FPassing clouds.5 mph77%30.67 "Hg10 mi
6:54 PM53 °FPassing clouds.9 mph80%30.66 "Hg10 mi
5:54 PM56 °FPassing clouds.6 mph77%30.66 "Hg10 mi
4:54 PM61 °FPassing clouds.6 mph67%30.67 "Hg10 mi
3:54 PM66 °FScattered clouds.6 mph54%30.68 "Hg10 mi
2:54 PM67 °FPassing clouds.5 mph55%30.68 "Hg10 mi
1:54 PM66 °FPassing clouds.5 mph56%30.69 "Hg10 mi
12:54 PM64 °FPassing clouds.5 mph61%30.71 "Hg10 mi
11:54 AM63 °FPassing clouds.3 mph63%30.75 "Hg10 mi
10:54 AM58 °FPassing clouds.3 mph70%30.77 "Hg10 mi
9:54 AM53 °FScattered clouds.5 mph74%30.79 "Hg10 mi
8:54 AM47 °FScattered clouds.6 mph83%30.79 "Hg10 mi
7:54 AM40 °FBroken clouds.5 mph93%30.78 "Hg10 mi
6:54 AM40 °FPassing clouds.7 mph93%30.77 "Hg9 mi
5:54 AM38 °FPassing clouds.6 mph97%30.76 "Hg10 mi
4:54 AM36 °FPassing clouds.7 mph92%30.76 "Hg10 mi
3:54 AM37 °FClear.No wind93%30.74 "Hg10 mi
2:54 AM38 °FClear.No wind93%30.75 "Hg10 mi
1:54 AM38 °FClear.5 mph90%30.76 "Hg10 mi
Weather by CustomWeather, © 2015

See weather overviewHow to use our weather pages